Location: Ch?enovice
(49.7164°N, 15.2160°E)
Time: 20:33:39
(UTC+00:00)

Cosmos 2333 - Pass Details

Date: 23 May 2024
Orbit: 828 x 866 km, 70.9° (Epoch: 20 June)

Event Time Altitude Azimuth Distance (km) Brightness Sun altitude
Rises 01:42:50 0° 329° (NNW) 3,425 7.6 -10.5°
Reaches altitude 10° 01:45:18 10° 328° (NNW) 2,491 6.9 -10.3°
Maximum altitude 01:51:01 75° 245° (WSW) 891 4.2 -9.7°
Drops below altitude 10° 01:56:44 10° 160° (SSE) 2,496 6.4 -9.0°
Sets 01:59:12 0° 159° (SSE) 3,431 7.1 -8.8°
